Home   Weather   Orenburg   Past weeks

Flag for Russia Past Weather in Orenburg, Russia — Yesterday and Last 2 Weeks

37 °F

Partly sunny.

Feels Like: 35 °F
Forecast: 23 / 35 °F
Wind: 3 mph from North

Location: Orenburg / Tsentralny

Current Time: Oct 22, 2016 at 4:59:26 PM

Latest Report: Oct 22, 2016 at 4:30 PM

Visibility: N/A

Pressure: 30.74 "Hg

Humidity: 52%

Dew Point: 21 °F

Location of OrenburgLocation

Past Weather in Orenburg — Graph


Orenburg Temperature Yesterday

Maximum temperature yesterday: 41 °F (at 2:30 PM)
Minimum temperature yesterday: 28 °F (at 7:30 AM)
Average temperature yesterday: 33 °F

High & Low Weather Summary for the Past Weeks

High64 °F (Oct 8, 3:30 PM)100% (Oct 9, 4:30 AM)30.72 "Hg (Oct 9, 4:30 AM)
Low23 °F (Oct 13, 5:30 AM)41% (Oct 17, 4:30 PM)30.04 "Hg (Oct 10, 4:00 PM)
Average38 °F76%30.27 "Hg
* Reported Oct 7 3:00 PM — Oct 22 3:30 PM, Orenburg, Weather by CustomWeather, © 2016

Note: Actual official high and low records may vary slightly from our data, if they occured in-between our weather recording intervals... More about our weather records


Orenburg Weather History for the Previous 24 Hours

Scroll right to see more
Time TempWeatherWind HumidityBarometerVisibility
3:30 PM
Sat, Oct 22
39 °FPartly sunny.3 mph52%30.72 "HgN/A
3:00 PM39 °FPartly sunny.3 mph52%30.72 "HgN/A
2:30 PM39 °FPartly sunny.3 mph52%30.72 "HgN/A
2:00 PM37 °FScattered clouds.3 mph52%30.72 "HgN/A
1:30 PM37 °FScattered clouds.6 mph56%30.72 "HgN/A
1:00 PM37 °FPassing clouds.3 mph56%30.72 "HgN/A
12:30 PM37 °FPassing clouds.3 mph60%30.72 "HgN/A
12:00 PM36 °FPassing clouds.3 mph65%30.72 "HgN/A
11:30 AM34 °FSunny.1 mph70%30.72 "Hg10 mi
11:00 AM32 °FSunny.3 mph69%30.72 "Hg10 mi
10:30 AM32 °FSunny.3 mph75%30.72 "Hg10 mi
10:00 AM30 °FSunny.3 mph80%30.72 "Hg10 mi
9:30 AM30 °FSunny.1 mph75%30.72 "Hg10 mi
9:00 AM28 °FPassing clouds.3 mph80%30.72 "HgN/A
8:30 AM27 °FClear.6 mph86%30.72 "Hg10 mi
8:00 AM27 °FPassing clouds.3 mph86%30.69 "HgN/A
7:30 AM25 °FClear.No wind86%30.69 "Hg10 mi
7:00 AM25 °FClear.No wind86%30.69 "Hg10 mi
6:30 AM25 °FClear.3 mph86%30.69 "Hg10 mi
6:00 AM23 °FClear.3 mph86%30.69 "Hg10 mi
5:00 AM27 °FClear.10 mph80%30.69 "Hg10 mi
4:30 AM27 °FClear.10 mph80%30.69 "Hg10 mi
4:00 AM27 °FPassing clouds.6 mph80%30.66 "HgN/A
3:30 AM27 °FPassing clouds.8 mph80%30.66 "HgN/A
3:00 AM27 °FPassing clouds.6 mph80%30.66 "HgN/A
2:30 AM27 °FPassing clouds.8 mph86%30.66 "HgN/A
2:00 AM27 °FPassing clouds.8 mph86%30.66 "HgN/A
1:30 AM27 °FPassing clouds.6 mph86%30.66 "HgN/A
1:00 AM28 °FPassing clouds.6 mph86%30.66 "HgN/A
12:30 AM30 °FPassing clouds.3 mph80%30.66 "HgN/A
12:00 AM30 °FPassing clouds.3 mph86%30.66 "HgN/A
11:30 PM
Fri, Oct 21
32 °FPassing clouds.1 mph80%30.66 "HgN/A
11:00 PM32 °FPassing clouds.1 mph75%30.63 "HgN/A
10:30 PM32 °FPassing clouds.3 mph75%30.63 "HgN/A
10:00 PM32 °FPassing clouds.3 mph75%30.63 "HgN/A
9:30 PM30 °FPassing clouds.1 mph80%30.63 "HgN/A
9:00 PM28 °FPassing clouds.3 mph80%30.63 "HgN/A
8:30 PM28 °FPassing clouds.1 mph80%30.60 "HgN/A
8:00 PM30 °FPassing clouds.3 mph69%30.60 "HgN/A
7:30 PM32 °FPassing clouds.1 mph64%30.60 "HgN/A
7:00 PM34 °FScattered clouds.3 mph65%30.60 "HgN/A
6:30 PM30 °FScattered clouds.1 mph75%30.60 "HgN/A
6:00 PM34 °FScattered clouds.3 mph65%30.60 "HgN/A
5:30 PM34 °FScattered clouds.3 mph65%30.57 "HgN/A
5:00 PM36 °FPartly sunny.3 mph56%30.57 "HgN/A
4:30 PM39 °FPartly sunny.1 mph45%30.57 "HgN/A
4:00 PM37 °FPartly sunny.1 mph48%30.57 "HgN/A
Weather by CustomWeather, © 2016

See weather overviewHow to use our weather pages